Syracuse, NY

12:10 AM EST on December 10, 2019 (GMT -0500)
Syracuse Hancock International

Weather History for KSYR - June, 2019

Change the Weather History Date:

Saturday, June 8, 2019

  Actual Average Record
Temperature  
Mean Temperature 67 °F 65 °F  
Max Temperature 83 °F 76 °F 97 °F (2011)
Min Temperature 51 °F 54 °F 40 °F (1945)
Degree Days  
Heating Degree Days 0 3  
Month to date heating degree days 29 29  
Since 1 June heating degree days 29 29  
Since 1 July heating degree days 6753 6619  
Cooling Degree Days 2 3  
Month to date cooling degree days 3 18  
Year to date cooling degree days 16 48  
Since 1 June cooling degree days 3 18  
Growing Degree Days 16 (Base 50)    
Moisture  
Dew Point 46 °F    
Average Humidity 56    
Maximum Humidity 89    
Minimum Humidity 23    
Precipitation  
Precipitation 0.00 in 0.11 in 1.29 in (1906)
Month to date precipitation 1.27 0.87  
Year to date precipitation 18.92 14.80  
Snow  
Snow 0.00 in 0.00 in 0.00 in (2002)
Month to date snowfall 0.0 0.0  
Since 1 June snowfall 0.0 0.0  
Since 1 July snowfall 115.0 123.8  
Snow Depth 0.00 in    
Sea Level Pressure  
Sea Level Pressure 30.15 in    
Wind  
Wind Speed 4 mph (ENE)    
Max Wind Speed 13 mph    
Max Gust Speed 19 mph    
Visibility 10 miles    
Events      
T = Trace of Precipitation, MM = Missing Value Source: NWS Daily Summary

Daily Weather History Graph

Daily Weather History Graph

Search for Another Location

Airport or City:

Astronomy

Jun. 08, 2019 Rise Set
Actual Time 5:25 AM EDT 8:42 PM EDT
Civil Twilight 4:50 AM EDT 9:17 PM EDT
Nautical Twilight 4:04 AM EDT 10:02 PM EDT
Astronomical Twilight 3:09 AM EDT 10:58 PM EDT
Moon 10:53 AM EDT (6/8) 12:39 AM EDT (6/8)
Length of Visible Light 16h 27m
Length of Day
15h 16m
Waxing Crescent, 32% of the Moon is Illuminated
Jun 8
Waxing Crescent
Jun 10
First Quarter
Jun 17
Full
Jun 25
Last Quarter
Jul 2
New

Hourly Weather History & Observations

Time (EDT) Temp. Dew Point Humidity Pressure Visibility Wind Dir Wind Speed Gust Speed Precip Events Conditions
12:54 AM 57.9 °F 51.1 °F 78% 30.06 in 10.0 mi Calm Calm - N/A   Partly Cloudy
1:54 AM 57.0 °F 50.0 °F 77% 30.08 in 10.0 mi Calm Calm - N/A   Partly Cloudy
2:54 AM 54.0 °F 48.9 °F 83% 30.10 in 10.0 mi Calm Calm - N/A   Partly Cloudy
3:54 AM 53.1 °F 48.9 °F 86% 30.10 in 10.0 mi Calm Calm - N/A   Scattered Clouds
4:54 AM 52.0 °F 48.0 °F 86% 30.13 in 10.0 mi ESE 3.5 mph - N/A   Scattered Clouds
5:54 AM 51.1 °F 48.0 °F 89% 30.14 in 10.0 mi Calm Calm - N/A   Scattered Clouds
6:54 AM 55.0 °F 50.0 °F 83% 30.17 in 10.0 mi Calm Calm - N/A   Scattered Clouds
7:54 AM 63.0 °F 53.1 °F 70% 30.17 in 10.0 mi Calm Calm - N/A   Scattered Clouds
8:54 AM 66.9 °F 51.1 °F 57% 30.18 in 10.0 mi East 3.5 mph - N/A   Partly Cloudy
9:54 AM 71.1 °F 48.9 °F 45% 30.19 in 10.0 mi NE 4.6 mph - N/A   Partly Cloudy
10:54 AM 73.9 °F 43.0 °F 33% 30.19 in 10.0 mi ENE 5.8 mph - N/A   Partly Cloudy
11:54 AM 75.9 °F 39.9 °F 27% 30.18 in 10.0 mi ENE 6.9 mph - N/A   Partly Cloudy
12:54 PM 78.1 °F 39.9 °F 25% 30.18 in 10.0 mi Variable 5.8 mph - N/A   Partly Cloudy
1:54 PM 79.0 °F 39.9 °F 25% 30.17 in 10.0 mi East 6.9 mph - N/A   Scattered Clouds
2:54 PM 80.1 °F 39.0 °F 23% 30.17 in 10.0 mi East 9.2 mph - N/A   Scattered Clouds
3:54 PM 81.0 °F 42.1 °F 25% 30.16 in 10.0 mi ESE 10.4 mph - N/A   Partly Cloudy
4:54 PM 81.0 °F 41.0 °F 24% 30.15 in 10.0 mi ENE 6.9 mph - N/A   Scattered Clouds
5:54 PM 82.9 °F 45.0 °F 26% 30.15 in 10.0 mi Calm Calm - N/A   Scattered Clouds
6:54 PM 80.1 °F 44.1 °F 28% 30.15 in 10.0 mi NNE 4.6 mph - N/A   Scattered Clouds
7:54 PM 73.9 °F 45.0 °F 35% 30.16 in 10.0 mi North 5.8 mph - N/A   Scattered Clouds
8:54 PM 69.1 °F 43.0 °F 39% 30.16 in 10.0 mi North 4.6 mph - N/A   Partly Cloudy
9:54 PM 66.0 °F 46.0 °F 48% 30.17 in 10.0 mi Calm Calm - N/A   Partly Cloudy
10:54 PM 63.0 °F 46.0 °F 54% 30.18 in 10.0 mi Calm Calm - N/A   Partly Cloudy
11:54 PM 60.1 °F 48.9 °F 67% 30.19 in 10.0 mi East 4.6 mph - N/A   Partly Cloudy